• In Hungary
  • List of Countries
  • For 7 days
  • Water Temperature
  • Satellite Maps
  • Weather Map
  • News
  • Weather Widgets
  • user-avatar
    Login

    Hourly Weather Shusha

    Today, 19 August, Saturday

    Time Temperature Precipitation Wind Pressure Humidity
    00:00 +19°C° 0 mm 2 mps 661 mmHg 61%
    01:00 +19°C° 0 mm 2 mps 661 mmHg 63%
    02:00 +20°C° 0 mm 1 mps 661 mmHg 64%
    03:00 +19°C° 0 mm 1 mps 661 mmHg 65%
    04:00 +19°C° 0 mm 1 mps 662 mmHg 65%
    05:00 +19°C° 0 mm 1 mps 662 mmHg 64%
    06:00 +20°C° 0 mm 1 mps 662 mmHg 64%
    07:00 +21°C° 0 mm 2 mps 663 mmHg 55%
    08:00 +24°C° 0 mm 2 mps 663 mmHg 46%
    09:00 +26°C° 0 mm 2 mps 664 mmHg 37%
    10:00 +27°C° 0 mm 3 mps 664 mmHg 34%
    11:00 +28°C° 0 mm 3 mps 664 mmHg 30%
    12:00 +29°C° 0 mm 4 mps 664 mmHg 27%
    13:00 +30°C° 0 mm 4 mps 664 mmHg 26%
    14:00 +30°C° 0 mm 4 mps 663 mmHg 26%
    15:00 +30°C° 0 mm 4 mps 663 mmHg 25%
    16:00 +29°C° 0 mm 4 mps 663 mmHg 27%
    17:00 +28°C° 0 mm 4 mps 663 mmHg 29%
    18:00 +27°C° 0 mm 4 mps 663 mmHg 32%
    19:00 +26°C° 0 mm 3 mps 663 mmHg 36%
    20:00 +24°C° 0 mm 2 mps 663 mmHg 40%
    21:00 +21°C° 0 mm 2 mps 662 mmHg 44%
    22:00 +20°C° 0 mm 2 mps 662 mmHg 46%
    23:00 +19°C° 0 mm 2 mps 662 mmHg 48%

    Tomorrow, 20 August, Sunday

    Time Temperature Precipitation Wind Pressure Humidity
    00:00 +19°C° 0 mm 2 mps 662 mmHg 50%
    01:00 +18°C° 0 mm 2 mps 662 mmHg 50%
    02:00 +18°C° 0 mm 2 mps 662 mmHg 51%
    03:00 +18°C° 0 mm 2 mps 662 mmHg 51%
    04:00 +18°C° 0 mm 2 mps 662 mmHg 49%
    05:00 +18°C° 0 mm 2 mps 662 mmHg 47%
    06:00 +18°C° 0 mm 2 mps 662 mmHg 45%
    07:00 +20°C° 0 mm 2 mps 663 mmHg 40%
    08:00 +24°C° 0 mm 2 mps 663 mmHg 34%
    09:00 +26°C° 0 mm 2 mps 664 mmHg 28%
    10:00 +27°C° 0 mm 3 mps 664 mmHg 26%
    11:00 +28°C° 0 mm 3 mps 664 mmHg 24%
    12:00 +29°C° 0 mm 4 mps 664 mmHg 22%
    13:00 +30°C° 0 mm 4 mps 664 mmHg 22%
    14:00 +30°C° 0 mm 4 mps 663 mmHg 22%
    15:00 +30°C° 0 mm 4 mps 663 mmHg 22%
    16:00 +29°C° 0 mm 4 mps 663 mmHg 24%
    17:00 +28°C° 0 mm 4 mps 662 mmHg 27%
    18:00 +27°C° 0 mm 4 mps 662 mmHg 29%
    19:00 +25°C° 0 mm 3 mps 662 mmHg 35%
    20:00 +23°C° 0 mm 2 mps 662 mmHg 41%
    21:00 +20°C° 0 mm 2 mps 662 mmHg 47%
    22:00 +19°C° 0 mm 2 mps 662 mmHg 49%
    23:00 +19°C° 0 mm 2 mps 662 mmHg 51%

    Day after tomorrow, 21 August, Monday

    Time Temperature Precipitation Wind Pressure Humidity
    00:00 +18°C° 0 mm 2 mps 661 mmHg 53%
    01:00 +18°C° 0 mm 2 mps 661 mmHg 52%
    02:00 +18°C° 0 mm 2 mps 661 mmHg 52%
    03:00 +18°C° 0 mm 2 mps 661 mmHg 51%
    04:00 +18°C° 0 mm 2 mps 661 mmHg 50%
    05:00 +18°C° 0 mm 2 mps 661 mmHg 50%
    06:00 +18°C° 0 mm 2 mps 661 mmHg 49%
    07:00 +20°C° 0 mm 2 mps 661 mmHg 44%
    08:00 +24°C° 0 mm 2 mps 662 mmHg 39%
    09:00 +26°C° 0 mm 2 mps 662 mmHg 34%
    10:00 +27°C° 0 mm 2 mps 662 mmHg 31%
    11:00 +28°C° 0 mm 3 mps 662 mmHg 29%
    12:00 +30°C° 0 mm 3 mps 662 mmHg 26%
    13:00 +30°C° 0 mm 3 mps 662 mmHg 26%
    14:00 +31°C° 0 mm 3 mps 661 mmHg 25%
    15:00 +31°C° 0 mm 3 mps 661 mmHg 25%
    16:00 +30°C° 0 mm 3 mps 661 mmHg 28%
    17:00 +29°C° 0 mm 2 mps 660 mmHg 30%
    18:00 +28°C° 0 mm 2 mps 660 mmHg 33%
    19:00 +26°C° 0 mm 2 mps 660 mmHg 37%
    20:00 +24°C° 0 mm 2 mps 660 mmHg 42%
    21:00 +21°C° 0 mm 2 mps 660 mmHg 46%
    22:00 +21°C° 0 mm 2 mps 660 mmHg 47%
    23:00 +20°C° 0 mm 2 mps 660 mmHg 48%

    22 August, Tuesday

    Time Temperature Precipitation Wind Pressure Humidity
    00:00 +20°C° 0 mm 2 mps 660 mmHg 49%
    01:00 +20°C° 0 mm 2 mps 659 mmHg 49%
    02:00 +19°C° 0 mm 2 mps 659 mmHg 49%
    03:00 +20°C° 0 mm 1 mps 659 mmHg 49%
    04:00 +20°C° 0 mm 1 mps 659 mmHg 49%
    05:00 +20°C° 0 mm 1 mps 659 mmHg 48%
    06:00 +20°C° 0 mm 1 mps 660 mmHg 47%
    07:00 +21°C° 0 mm 2 mps 660 mmHg 42%
    08:00 +25°C° 0 mm 2 mps 661 mmHg 36%
    09:00 +27°C° 0 mm 2 mps 661 mmHg 30%
    10:00 +28°C° 0 mm 2 mps 661 mmHg 28%
    11:00 +30°C° 0 mm 3 mps 661 mmHg 26%
    12:00 +31°C° 0 mm 3 mps 661 mmHg 24%
    13:00 +31°C° 0 mm 3 mps 661 mmHg 24%
    14:00 +33°C° 0 mm 3 mps 661 mmHg 24%
    15:00 +33°C° 0 mm 3 mps 660 mmHg 24%
    16:00 +31°C° 0 mm 3 mps 660 mmHg 26%
    17:00 +30°C° 0 mm 3 mps 660 mmHg 29%
    18:00 +29°C° 0 mm 3 mps 660 mmHg 31%
    19:00 +27°C° 0 mm 2 mps 660 mmHg 35%
    20:00 +25°C° 0 mm 2 mps 660 mmHg 40%
    21:00 +21°C° 0 mm 2 mps 659 mmHg 44%
    22:00 +21°C° 0 mm 2 mps 659 mmHg 46%
    23:00 +20°C° 0 mm 2 mps 659 mmHg 48%

    23 August, Wednesday

    Time Temperature Precipitation Wind Pressure Humidity
    00:00 +20°C° 0 mm 2 mps 659 mmHg 50%
    01:00 +19°C° 0 mm 2 mps 659 mmHg 49%
    02:00 +19°C° 0 mm 2 mps 659 mmHg 49%
    03:00 +19°C° 0 mm 2 mps 659 mmHg 49%
    04:00 +19°C° 0 mm 2 mps 659 mmHg 47%
    05:00 +20°C° 0 mm 1 mps 660 mmHg 46%
    06:00 +20°C° 0 mm 1 mps 660 mmHg 45%
    07:00 +21°C° 0 mm 2 mps 661 mmHg 40%
    08:00 +24°C° 0 mm 2 mps 661 mmHg 35%
    09:00 +27°C° 0 mm 2 mps 662 mmHg 31%
    10:00 +28°C° 0 mm 3 mps 662 mmHg 28%
    11:00 +29°C° 0 mm 3 mps 662 mmHg 26%
    12:00 +30°C° 0 mm 4 mps 662 mmHg 24%
    13:00 +32°C° 0 mm 4 mps 662 mmHg 24%
    14:00 +32°C° 0 mm 4 mps 662 mmHg 24%
    15:00 +33°C° 0 mm 4 mps 661 mmHg 23%
    16:00 +30°C° 0 mm 4 mps 661 mmHg 25%
    17:00 +29°C° 0 mm 4 mps 661 mmHg 27%
    18:00 +28°C° 0 mm 4 mps 661 mmHg 28%
    19:00 +26°C° 0 mm 3 mps 661 mmHg 32%
    20:00 +24°C° 0 mm 2 mps 661 mmHg 36%
    21:00 +20°C° 0 mm 2 mps 660 mmHg 39%
    22:00 +20°C° 0 mm 2 mps 660 mmHg 40%
    23:00 +20°C° 0 mm 2 mps 660 mmHg 40%

    24 August, Thursday

    Time Temperature Precipitation Wind Pressure Humidity
    00:00 +19°C° 0 mm 2 mps 660 mmHg 41%
    01:00 +19°C° 0 mm 2 mps 660 mmHg 40%
    02:00 +19°C° 0 mm 2 mps 660 mmHg 39%
    03:00 +18°C° 0 mm 2 mps 660 mmHg 39%
    04:00 +18°C° 0 mm 2 mps 660 mmHg 38%
    05:00 +19°C° 0 mm 2 mps 660 mmHg 37%
    06:00 +19°C° 0 mm 2 mps 661 mmHg 36%
    07:00 +21°C° 0 mm 2 mps 661 mmHg 33%
    08:00 +24°C° 0 mm 2 mps 662 mmHg 29%
    09:00 +27°C° 0 mm 2 mps 662 mmHg 26%
    10:00 +28°C° 0 mm 3 mps 662 mmHg 24%
    11:00 +29°C° 0 mm 3 mps 662 mmHg 22%
    12:00 +31°C° 0 mm 3 mps 663 mmHg 20%
    13:00 +31°C° 0 mm 3 mps 662 mmHg 20%
    14:00 +31°C° 0 mm 3 mps 662 mmHg 20%
    15:00 +33°C° 0 mm 3 mps 662 mmHg 19%
    16:00 +30°C° 0 mm 3 mps 662 mmHg 21%
    17:00 +29°C° 0 mm 2 mps 662 mmHg 24%
    18:00 +28°C° 0 mm 2 mps 662 mmHg 26%
    19:00 +26°C° 0 mm 2 mps 662 mmHg 29%
    20:00 +24°C° 0 mm 2 mps 662 mmHg 31%
    21:00 +21°C° 0 mm 2 mps 662 mmHg 34%
    22:00 +21°C° 0 mm 2 mps 662 mmHg 35%
    23:00 +20°C° 0 mm 2 mps 663 mmHg 36%
    Show more